STARLINK-3117 (49435 NORAD) Tracking and Keplerian Element Data

This shows tracking and keplerian element data for the satellite.

Feedback or suggestion? Click here.




ElementValue
Catalog49435
NameSTARLINK-3117
Epoch Orbit370
Epoch Day15.91668981
Epoch Year2022
RAAN180.0184
Inclination53.2172
Eccentricity0.0001736
Argument of Perigee37.1568
Mean Anonmoly167.032
Mean Motion15.61578931
Decay Rate-0.00310347
L11 49435U 21104AD 22015.91668981 -.00310347 00000+0 -36797-2 0 9994
L22 49435 53.2172 180.0184 0001736 37.1568 167.0320 15.61578931 3701

Live tracking and technical data element details for STARLINK-3117 (NORAD 49435). STARLINK-3117 can be tracked NOW for your location showing map with azimuth and elevation plus other details from your city location.

Track the satellite on the map from your city or location and see movement details for azimuth, elevation, latitude, longitude, range, height, and movement on the map or in text.







IsCatalogInMostPopularTable: catalog: 49435, numindb: 9
Update: records affected: 1



GetName: 49435 STARLINK-3117

Hit Count: updated at: Thu, 20 Jan 2022 17:58:32 GMT